FENGYUN 1C DEB

Satellite information

Favourite Embed

Satellite Type and Status

DEBRISIN ORBIT

Key statistics

Satellite FENGYUN 1C DEB at a glance.

Uptime

9715

Days in orbit

Revolutions

≈ 14.2

Per day

Orbit

SSO

Sun Synchronous Orbit

Inclination

98.7

Latest

Satellite identification and parameters

Extended collection of information and parameters for FENGYUN 1C DEB.

Object identification

Identified? True

Debris? True

Object name: FENGYUN 1C DEB

International designator: 1999-025EYM

Object number (NORAD): 43213

Object ID (CCSDS): 43213

Country: PEOPLES REPUBLIC OF CHINA (PRC)

Current information (Y/N): Y

RCS size: SMALL

Orbital parameters

Period: 101.135 minutes

Inclination: 98.7346 deg

SMA: 7190.522 km

Apoapsis: 851.97 km

Periapsis: 772.805 km

RAAN: 50.0589 deg

Eccentricy: 0.00550482

Argument of periapsis: 230.6376 deg

Mean anomaly: 128.9918 deg

Mean motion: 14.2384299 rev/day

Mean motion (dot): 0.00005369 rev/day2

B* drag term: 0.0023267016 1/REarth

Two-line elements (TLE)

Creation date: Dec. 12, 2025, 3:16 a.m.

Reference frame: TEME

Reference center: EARTH

Epoch: Dec. 11, 2025, 3:35 p.m. UTC

TLE line 0: 0 FENGYUN 1C DEB

TLE line 1: 1 43213U 99025EYM 25345.64964260 .00005369 00000-0 23267-2 0 9999

TLE line 2: 2 43213 98.7346 50.0589 0055048 230.6376 128.9918 14.23842990403577

Live tracking on map

Real-time ground track for satellite FENGYUN 1C DEB.

In-orbit conjunctions

A list of the most updated potential collisions computed for object FENGYUN 1C DEB.

Target Orbit TCA Probability of collision Miss distance Type
NOAA 16 SSO 2025-10-13 04:05:41 0.0001020064 212.0 (m) PAYLOAD
COSMOS 252 DEB * LEO 2024-11-09 04:26:33 0.0003039695 638.0 (m) DEBRIS

Associated space launch

Chinese polar orbiting meteorological satellite

FENGYUN 1C DEB was lifted into orbit during the mission ‘Long March 4B | Feng Yun 1C’, on board a Long March 4B space rocket.

The launch took place on May 10, 1999, 1:33 a.m. from Launch Complex 7.

For more information about the launch, click the button.

Launch to space Long March 4B | Feng Yun 1C
Long March 4B | Feng Yun 1C

Agency: N/A

Status: Launch Successful

Launch date: May 10, 1999, 1:33 a.m. UTC

Rocket: Long March 4B

Launch pad: Launch Complex 7

Location: Taiyuan Satellite Launch Center, People's Republic of China

...

Latest news about this satellite

There are no fresh news available about this satellite. Check back as we update our databases every day.


Newsletter sign-up

Weekly statistics, charts and insights to help you stay on top of the space industry.